Location: Invercargill
(46.4000°S, 168.3500°E)
Time: 17:22:47
(UTC+13:00)

Cosmos 2322 - Pass Details

Date: 05 October 2021
Orbit: 840 x 855 km, 71.0° (Epoch: 17 October)

Event Time Altitude Azimuth Distance (km) Brightness Sun altitude
Rises 23:35:28 0° 214° (SW) 3,436 8.0 -32.3°
Reaches altitude 10° 23:38:07 10° 223° (SW) 2,496 7.0 -32.5°
Enters shadow 23:42:40 33° 274° (W) 1,396 5.0 -33.0°
